Monclova, OH

2:54 PM EDT on July 28, 2016 (GMT -0400)
Toledo Express

Weather History for KTOL - February, 2013

Change the Weather History Date:

Thursday, February 7, 2013

  Actual Average Record
Temperature  
Mean Temperature 32 °F 27 °F  
Max Temperature 40 °F 34 °F 56 °F (1925)
Min Temperature 23 °F 19 °F -9 °F (1972)
Degree Days  
Heating Degree Days 33 38  
Month to date heating degree days 316 272  
Since 1 July heating degree days 3708 3821  
Cooling Degree Days 0 0  
Month to date cooling degree days 0 0  
Year to date cooling degree days 0 0  
Moisture  
Dew Point 22 °F    
Average Humidity 72    
Maximum Humidity 85    
Minimum Humidity 59    
Precipitation  
Precipitation 0.05 in 0.07 in 0.65 in (2005)
Month to date precipitation 0.39 0.47  
Year to date precipitation 4.01 2.52  
Snow  
Snow 0.00 in 0.40 in - ()
Month to date snowfall 7.6 2.6  
Since 1 July snowfall 17.7 23.7  
Snow Depth 2.00 in    
Sea Level Pressure  
Sea Level Pressure 30.10 in    
Wind  
Wind Speed 7 mph (East)    
Max Wind Speed 15 mph    
Max Gust Speed 17 mph    
Visibility 9 miles    
Events      
T = Trace of Precipitation, MM = Missing Value Source: NWS Daily Summary

Daily Weather History Graph

Daily Weather History Graph

Search for Another Location

Airport or City:

Trip Planner

Search our weather history database for the weather conditions in past years. The results will help you decide how hot, cold, wet, or windy it might be!

Date:

Astronomy

Feb. 07, 2013 Rise Set
Actual Time 7:40 AM EST 5:59 PM EST
Civil Twilight 7:11 AM EST 6:27 PM EST
Nautical Twilight 6:38 AM EST 7:00 PM EST
Astronomical Twilight 6:06 AM EST 7:33 PM EST
Moon 5:20 AM EST (2/7) 3:21 PM EST (2/7)
Length of Visible Light 11h 16m
Length of Day
10h 18m
Waning Crescent, 9% of the Moon is Illuminated
Feb 7
Waning Crescent
Feb 10
New
Feb 17
First Quarter
Feb 25
Full
Mar 4
Last Quarter

Hourly Weather History & Observations

Time (EST) Temp. Windchill Dew Point Humidity Pressure Visibility Wind Dir Wind Speed Gust Speed Precip Events Conditions
12:52 AM 24.8 °F 20.5 °F 15.8 °F 69% 30.26 in 10.0 mi NE 3.5 mph - N/A   Overcast
1:52 AM 23.0 °F 18.4 °F 14.0 °F 68% 30.28 in 10.0 mi SE 3.5 mph - N/A   Overcast
2:52 AM 24.1 °F 19.7 °F 15.1 °F 69% 30.27 in 10.0 mi SE 3.5 mph - N/A   Overcast
3:52 AM 24.1 °F 18.2 °F 16.0 °F 71% 30.25 in 10.0 mi ESE 4.6 mph - N/A   Overcast
4:52 AM 25.0 °F 18.1 °F 16.0 °F 69% 30.23 in 10.0 mi SE 5.8 mph - N/A   Overcast
5:52 AM 25.0 °F - 16.0 °F 69% 30.24 in 10.0 mi Calm Calm - N/A   Clear
6:52 AM 25.0 °F 20.7 °F 17.1 °F 72% 30.25 in 10.0 mi East 3.5 mph - N/A   Clear
7:52 AM 25.0 °F 20.7 °F 17.1 °F 72% 30.23 in 7.0 mi ESE 3.5 mph - N/A   Scattered Clouds
8:52 AM 26.1 °F 20.5 °F 19.0 °F 75% 30.22 in 6.0 mi East 4.6 mph - N/A   Haze
9:52 AM 28.4 °F 21.2 °F 19.4 °F 69% 30.16 in 7.0 mi ESE 6.9 mph - N/A   Scattered Clouds
10:52 AM 30.9 °F 25.2 °F 21.9 °F 69% 30.17 in 8.0 mi ESE 5.8 mph - N/A   Clear
11:52 AM 34.0 °F 28.0 °F 23.0 °F 64% 30.16 in 8.0 mi ESE 6.9 mph - N/A   Clear
12:52 PM 37.0 °F 32.4 °F 25.0 °F 62% 30.11 in 9.0 mi SE 5.8 mph - 0.00 in   Clear
1:52 PM 39.0 °F 34.0 °F 26.1 °F 60% 30.07 in 10.0 mi ESE 6.9 mph - N/A   Clear
2:52 PM 39.9 °F 34.5 °F 27.0 °F 60% 30.04 in 9.0 mi East 8.1 mph - N/A   Clear
3:52 PM 39.0 °F 31.0 °F 28.0 °F 65% 30.00 in 8.0 mi ENE 13.8 mph - N/A   Clear
4:52 PM 36.0 °F 28.0 °F 27.0 °F 70% 29.99 in 7.0 mi East 11.5 mph - N/A   Clear
5:52 PM 33.1 °F 24.9 °F 26.1 °F 75% 29.99 in 7.0 mi East 10.4 mph - N/A   Clear
6:52 PM 30.9 °F 22.2 °F 25.0 °F 79% 29.96 in 10.0 mi East 10.4 mph - N/A   Clear
7:52 PM 30.9 °F 22.8 °F 26.1 °F 82% 29.94 in 10.0 mi East 9.2 mph - N/A   Mostly Cloudy
8:52 PM 30.9 °F 22.8 °F 26.1 °F 82% 29.91 in 10.0 mi East 9.2 mph - N/A   Partly Cloudy
9:52 PM 32.0 °F 24.8 °F 27.0 °F 82% 29.87 in 9.0 mi ENE 8.1 mph - N/A   Overcast
10:52 PM 32.0 °F 26.4 °F 28.0 °F 85% 29.84 in 6.0 mi ENE 5.8 mph - 0.01 in   Overcast
11:52 PM 32.0 °F 24.8 °F 30.0 °F 92% 29.83 in 4.0 mi North 8.1 mph - 0.04 in   Overcast